Time,TemperatureF,DewpointF,PressureIn,WindDirection,WindDirectionDegrees,WindSpeedMPH,WindSpeedGustMPH,Humidity,HourlyPrecipIn,Conditions,Clouds,dailyrainin,SolarRadiationWatts/m^2,SoftwareType,DateUTC
2013-07-11 01:45:00,69.0,50.0,-100.00,East,92,3.0,10.0,50,0.00,,,0.00,0.000000,,2013-07-11 07:45:00,
2013-07-11 01:53:00,69.0,50.0,-100.00,East,92,3.0,10.0,50,0.00,,,0.00,0.000000,,2013-07-11 07:53:00,
2013-07-11 02:02:00,69.0,50.0,-100.00,East,92,3.0,10.0,50,0.00,,,0.00,0.000000,,2013-07-11 08:02:00,
2013-07-11 02:11:00,69.0,50.0,-100.00,East,92,3.0,10.0,50,0.00,,,0.00,0.000000,,2013-07-11 08:11:00,
2013-07-11 02:43:00,65.0,50.0,-100.00,SSE,148,3.0,5.0,58,0.00,,,0.00,0.000000,,2013-07-11 08:43:00,
2013-07-11 02:53:00,65.0,50.0,-100.00,SSE,148,3.0,5.0,58,0.00,,,0.00,0.000000,,2013-07-11 08:53:00,
2013-07-11 03:02:00,65.0,50.0,-100.00,SSE,148,3.0,5.0,58,0.00,,,0.00,0.000000,,2013-07-11 09:02:00,
2013-07-11 03:12:00,65.0,50.0,-100.00,SSE,148,3.0,5.0,58,0.00,,,0.00,0.000000,,2013-07-11 09:12:00,
2013-07-11 03:43:00,62.0,50.0,-100.00,SSW,200,2.0,6.0,65,0.00,,,0.00,0.000000,,2013-07-11 09:43:00,
2013-07-11 03:53:00,62.0,50.0,-100.00,SSW,200,2.0,6.0,65,0.00,,,0.00,0.000000,,2013-07-11 09:53:00,
2013-07-11 04:01:00,62.0,50.0,-100.00,SSW,200,2.0,6.0,65,0.00,,,0.00,0.000000,,2013-07-11 10:01:00,
2013-07-11 04:11:00,62.0,50.0,-100.00,SSW,200,2.0,6.0,65,0.00,,,0.00,0.000000,,2013-07-11 10:11:00,
2013-07-11 04:43:00,58.0,53.0,-100.00,SSE,157,3.0,6.0,83,0.00,,,0.00,0.000000,,2013-07-11 10:43:00,
2013-07-11 04:52:00,58.0,53.0,-100.00,SSE,157,3.0,6.0,83,0.00,,,0.00,0.000000,,2013-07-11 10:52:00,
2013-07-11 05:02:00,58.0,53.0,-100.00,SSE,157,3.0,6.0,83,0.00,,,0.00,0.000000,,2013-07-11 11:02:00,
2013-07-11 05:12:00,58.0,53.0,-100.00,SSE,157,3.0,6.0,83,0.00,,,0.00,0.000000,,2013-07-11 11:12:00,
2013-07-11 05:43:00,56.0,51.0,-100.00,South,173,3.0,5.0,82,0.00,,,-99.99,0.000000,,2013-07-11 11:43:00,
2013-07-11 05:53:00,56.0,51.0,-100.00,South,173,3.0,5.0,82,0.00,,,-99.99,0.000000,,2013-07-11 11:53:00,
2013-07-11 06:01:00,56.0,51.0,-100.00,South,173,3.0,5.0,82,0.00,,,-99.99,0.000000,,2013-07-11 12:01:00,
2013-07-11 06:12:00,56.0,51.0,-100.00,South,173,3.0,5.0,82,0.00,,,-99.99,0.000000,,2013-07-11 12:12:00,
2013-07-11 06:43:00,54.0,50.0,-100.00,ESE,113,2.0,6.0,86,0.00,,,-99.99,3.000000,,2013-07-11 12:43:00,
2013-07-11 07:01:00,54.0,50.0,-100.00,ESE,113,2.0,6.0,86,0.00,,,-99.99,3.000000,,2013-07-11 13:01:00,
2013-07-11 07:11:00,54.0,50.0,-100.00,ESE,113,2.0,6.0,86,0.00,,,-99.99,3.000000,,2013-07-11 13:11:00,
2013-07-11 07:46:00,59.0,54.0,-100.00,East,99,3.0,7.0,82,0.00,,,-99.99,53.000000,,2013-07-11 13:46:00,
2013-07-11 07:54:00,59.0,54.0,-100.00,East,99,3.0,7.0,82,0.00,,,-99.99,53.000000,,2013-07-11 13:54:00,
2013-07-11 08:03:00,59.0,54.0,-100.00,East,99,3.0,7.0,82,0.00,,,-99.99,53.000000,,2013-07-11 14:03:00,
2013-07-11 08:12:00,59.0,54.0,-100.00,East,99,3.0,7.0,82,0.00,,,-99.99,53.000000,,2013-07-11 14:12:00,
2013-07-11 08:46:00,70.0,57.0,-100.00,West,274,2.0,5.0,64,0.00,,,0.00,232.000000,,2013-07-11 14:46:00,
2013-07-11 08:54:00,70.0,57.0,-100.00,West,274,2.0,5.0,64,0.00,,,0.00,232.000000,,2013-07-11 14:54:00,
2013-07-11 09:03:00,70.0,57.0,-100.00,West,274,2.0,5.0,64,0.00,,,0.00,232.000000,,2013-07-11 15:03:00,
2013-07-11 09:12:00,70.0,57.0,-100.00,West,274,2.0,5.0,64,0.00,,,0.00,232.000000,,2013-07-11 15:12:00,
2013-07-11 11:02:00,84.0,54.0,-100.00,WNW,286,2.0,6.0,36,0.00,,,0.00,607.000000,,2013-07-11 17:02:00,
2013-07-11 11:39:00,83.0,48.0,-100.00,NNE,32,3.0,4.0,30,-99.99,,,0.00,592.000000,,2013-07-11 17:39:00,
2013-07-11 11:48:00,83.0,48.0,-100.00,NNE,32,3.0,4.0,30,-99.99,,,0.00,592.000000,,2013-07-11 17:48:00,
2013-07-11 11:54:00,83.0,48.0,-100.00,NNE,32,3.0,4.0,30,-99.99,,,0.00,592.000000,,2013-07-11 17:54:00,
2013-07-11 12:03:00,83.0,48.0,-100.00,NNE,32,3.0,4.0,30,-99.99,,,0.00,592.000000,,2013-07-11 18:03:00,
2013-07-11 12:12:00,83.0,48.0,-100.00,NNE,32,3.0,4.0,30,-99.99,,,0.00,592.000000,,2013-07-11 18:12:00,
2013-07-11 12:48:00,83.0,48.0,-100.00,South,175,4.0,7.0,30,0.00,,,0.00,531.000000,,2013-07-11 18:48:00,
2013-07-11 12:56:00,83.0,48.0,-100.00,South,175,4.0,7.0,30,0.00,,,0.00,531.000000,,2013-07-11 18:56:00,
2013-07-11 13:03:00,83.0,48.0,-100.00,South,175,4.0,7.0,30,0.00,,,0.00,531.000000,,2013-07-11 19:03:00,
2013-07-11 13:12:00,83.0,48.0,-100.00,South,175,4.0,7.0,30,0.00,,,0.00,531.000000,,2013-07-11 19:12:00,
2013-07-11 13:46:00,85.0,39.0,-100.00,South,172,6.0,9.0,20,0.00,,,0.00,674.000000,,2013-07-11 19:46:00,
2013-07-11 13:57:00,85.0,39.0,-100.00,South,172,6.0,9.0,20,0.00,,,0.00,674.000000,,2013-07-11 19:57:00,
2013-07-11 14:03:00,85.0,39.0,-100.00,South,172,6.0,9.0,20,0.00,,,0.00,674.000000,,2013-07-11 20:03:00,
2013-07-11 14:12:00,85.0,39.0,-100.00,South,172,6.0,9.0,20,0.00,,,0.00,674.000000,,2013-07-11 20:12:00,
2013-07-11 14:49:00,88.0,42.0,-100.00,SW,236,4.0,11.0,20,0.00,,,0.00,767.000000,,2013-07-11 20:49:00,
2013-07-11 15:02:00,88.0,42.0,-100.00,SW,236,4.0,11.0,20,0.00,,,0.00,767.000000,,2013-07-11 21:02:00,
2013-07-11 15:45:00,86.0,40.0,-100.00,West,261,11.0,19.0,20,0.00,,,0.00,787.000000,,2013-07-11 21:45:00,
2013-07-11 15:57:00,86.0,40.0,-100.00,West,261,11.0,19.0,20,0.00,,,0.00,787.000000,,2013-07-11 21:57:00,
2013-07-11 16:03:00,86.0,40.0,-100.00,West,261,11.0,19.0,20,0.00,,,0.00,787.000000,,2013-07-11 22:03:00,
2013-07-11 16:12:00,86.0,40.0,-100.00,West,261,11.0,19.0,20,0.00,,,0.00,787.000000,,2013-07-11 22:12:00,
2013-07-11 16:49:00,88.0,44.0,-100.00,West,274,5.0,21.0,22,0.00,,,0.00,569.000000,,2013-07-11 22:49:00,
2013-07-11 16:54:00,88.0,44.0,-100.00,West,274,5.0,21.0,22,0.00,,,0.00,569.000000,,2013-07-11 22:54:00,
2013-07-11 17:02:00,88.0,44.0,-100.00,West,274,5.0,21.0,22,0.00,,,0.00,569.000000,,2013-07-11 23:02:00,
2013-07-11 17:11:00,88.0,44.0,-100.00,West,274,5.0,21.0,22,0.00,,,0.00,569.000000,,2013-07-11 23:11:00,
2013-07-11 17:47:00,82.0,41.0,-100.00,WNW,286,10.0,17.0,23,0.00,,,0.00,555.000000,,2013-07-11 23:47:00,
2013-07-11 18:03:00,82.0,41.0,-100.00,WNW,286,10.0,17.0,23,0.00,,,0.00,555.000000,,2013-07-12 00:03:00,
2013-07-11 18:12:00,82.0,41.0,-100.00,WNW,286,10.0,17.0,23,0.00,,,0.00,555.000000,,2013-07-12 00:12:00,
2013-07-11 18:46:00,76.0,41.0,-100.00,ENE,72,5.0,21.0,28,0.00,,,0.00,264.000000,,2013-07-12 00:46:00,
2013-07-11 18:57:00,76.0,41.0,-100.00,ENE,72,5.0,21.0,28,0.00,,,0.00,264.000000,,2013-07-12 00:57:00,
2013-07-11 19:02:00,76.0,41.0,-100.00,ENE,72,5.0,21.0,28,0.00,,,0.00,264.000000,,2013-07-12 01:02:00,
2013-07-11 19:12:00,76.0,41.0,-100.00,ENE,72,5.0,21.0,28,0.00,,,0.00,264.000000,,2013-07-12 01:12:00,
2013-07-11 19:47:00,73.0,37.0,-100.00,SSE,168,8.0,18.0,27,0.00,,,0.00,79.000000,,2013-07-12 01:47:00,
2013-07-11 19:55:00,73.0,37.0,-100.00,SSE,168,8.0,18.0,27,0.00,,,0.00,79.000000,,2013-07-12 01:55:00,
2013-07-11 20:02:00,73.0,37.0,-100.00,SSE,168,8.0,18.0,27,0.00,,,0.00,79.000000,,2013-07-12 02:02:00,
2013-07-11 20:12:00,73.0,37.0,-100.00,SSE,168,8.0,18.0,27,0.00,,,0.00,79.000000,,2013-07-12 02:12:00,
2013-07-11 20:36:00,72.0,46.0,-100.00,SW,231,9.0,17.0,39,0.00,,,0.00,227.000000,,2013-07-12 02:36:00,
2013-07-11 20:45:00,72.0,46.0,-100.00,SW,231,9.0,17.0,39,0.00,,,0.00,227.000000,,2013-07-12 02:45:00,
2013-07-11 20:55:00,72.0,46.0,-100.00,SW,231,9.0,17.0,39,0.00,,,0.00,227.000000,,2013-07-12 02:55:00,
2013-07-11 21:02:00,72.0,46.0,-100.00,SW,231,9.0,17.0,39,0.00,,,0.00,227.000000,,2013-07-12 03:02:00,
2013-07-11 21:12:00,72.0,46.0,-100.00,SW,231,9.0,17.0,39,0.00,,,0.00,227.000000,,2013-07-12 03:12:00,
2013-07-11 21:46:00,69.0,49.0,-100.00,SSW,206,7.0,14.0,49,0.00,,,0.00,53.000000,,2013-07-12 03:46:00,
2013-07-11 21:55:00,69.0,49.0,-100.00,SSW,206,7.0,14.0,49,0.00,,,0.00,53.000000,,2013-07-12 03:55:00,
2013-07-11 22:01:00,69.0,49.0,-100.00,SSW,206,7.0,14.0,49,0.00,,,0.00,53.000000,,2013-07-12 04:01:00,
2013-07-11 22:11:00,69.0,49.0,-100.00,SSW,206,7.0,14.0,49,0.00,,,0.00,53.000000,,2013-07-12 04:11:00,
2013-07-11 22:43:00,66.0,48.0,-100.00,South,182,3.0,15.0,53,0.00,,,0.00,7.000000,,2013-07-12 04:43:00,
2013-07-11 22:53:00,66.0,48.0,-100.00,South,182,3.0,15.0,53,0.00,,,0.00,7.000000,,2013-07-12 04:53:00,
2013-07-11 23:02:00,66.0,48.0,-100.00,South,182,3.0,15.0,53,0.00,,,0.00,7.000000,,2013-07-12 05:02:00,
2013-07-11 23:11:00,66.0,48.0,-100.00,South,182,3.0,15.0,53,0.00,,,0.00,7.000000,,2013-07-12 05:11:00,
2013-07-11 23:32:00,58.0,49.0,-100.00,NNE,23,3.0,7.0,71,0.00,,,0.00,0.000000,,2013-07-12 05:32:00,